Vorticity
6 7 7 7 7 6 5 5 5 5 5 5 5 6 5 5 6 7 8 6 6 4 3 2 2 3 3 5 4 5 5 5 5
8 6 5 5 5 5 5 5 5 5 5 5 4 4 5 5 5 5 5 4 4 4 5 4 3 3 3 4 6 2 2 5 5
5 5 6 6 5 4 4 4 4 4 4 4 4 4 5 5 4 4 4 4 5 4 4 4 3 4 4 4 4 5 2 2 3
6 7 5 5 4 4 4 4 4 4 4 4 4 4 4 4 4 4 4 4 5 5 6 7 6 5 4 4 4 6 1 2 3
6 6 5 5 4 5 5 5 5 4 4 3 3 4 5 4 5 5 5 5 5 11 11 8 5 6 7 5 5 3 3 4 4
5 6 5 5 5 5 5 4 4 4 6 8 9 10 11 9 10 9 9 8 7 4 2 1 2 4 3 6 7 8 6 3 2
6 5 5 6 5 5 5 5 7 7 8 9 9 10 11 13 12 12 12 13 13 10 9 1 -0 6 5 2 0 6 7 9 5
5 5 5 6 6 7 8 8 9 9 9 9 10 9 10 10 10 10 9 10 11 10 12 10 9 8 7 8 3 -1 7 3 4
5 5 6 6 7 7 7 8 9 9 9 9 9 10 10 9 10 10 9 9 9 11 13 11 10 9 10 10 9 8 4 0 8
6 6 6 6 7 7 8 8 8 9 9 10 11 12 13 13 12 11 11 10 10 10 11 13 13 11 10 10 10 9 9 8 5
6 5 6 8 8 8 9 9 9 9 10 13 15 15 15 15 14 12 11 10 11 14 16 15 13 14 14 14 13 12 12 10 9
5 7 8 8 8 8 8 8 9 11 12 15 15 16 18 18 16 15 13 10 9 8 9 9 9 8 9 10 10 11 12 13 12
8 8 8 8 8 8 9 9 11 12 14 14 14 12 10 9 9 10 11 12 12 11 11 11 10 11 11 11 10 10 10 11 12
9 9 10 11 11 11 11 11 12 14 15 13 10 9 9 10 11 10 10 10 10 11 11 12 11 10 9 9 10 10 11 12 12
10 10 11 12 12 12 13 12 13 14 13 11 9 9 10 11 9 9 8 9 9 9 9 10 10 10 13 14 13 13 14 13 12
10 10 11 12 12 12 14 13 13 13 12 10 10 10 10 10 9 9 9 8 9 10 9 10 10 11 9 12 10 10 12 13 9
10 12 11 10 11 12 13 13 12 11 12 10 10 11 10 7 8 8 8 10 11 9 10 8 8 8 9 9 9 11 11 7 5
10 10 9 9 12 12 12 12 11 10 9 10 10 11 9 9 10 8 8 9 8 8 8 9 7 7 7 8 9 9 10 6 11
9 9 8 9 12 12 10 10 9 9 9 10 10 9 9 9 7 7 7 7 7 7 7 8 7 7 7 6 8 8 9 14 13
10 8 8 8 10 11 9 9 9 9 8 9 9 8 8 8 9 7 6 6 7 7 6 7 6 7 8 6 8 7 6 10 12
Height
3190 3189 3187 3186 3185 3184 3183 3182 3180 3179 3178 3176 3175 3174 3172 3171 3169 3167 3166 3165 3164 3163 3163 3162 3161 3160 3159 3158 3157 3156 3155 3154 3153
3189 3187 3186 3185 3183 3182 3181 3179 3178 3177 3176 3174 3173 3171 3170 3168 3166 3165 3163 3162 3161 3160 3159 3159 3158 3157 3157 3156 3155 3154 3153 3152 3151
3186 3185 3184 3183 3181 3180 3178 3177 3175 3174 3172 3170 3168 3167 3166 3165 3163 3161 3160 3158 3157 3157 3156 3155 3155 3154 3154 3153 3153 3152 3151 3150 3150
3185 3184 3182 3181 3179 3177 3175 3174 3172 3170 3168 3166 3163 3162 3160 3159 3158 3156 3154 3153 3153 3152 3152 3151 3151 3150 3150 3149 3150 3149 3149 3148 3147
3182 3181 3180 3178 3176 3174 3172 3170 3168 3165 3163 3161 3157 3155 3154 3152 3150 3149 3149 3147 3147 3147 3147 3146 3146 3146 3145 3145 3145 3146 3146 3145 3144
3180 3178 3177 3175 3173 3171 3168 3165 3163 3160 3157 3155 3151 3148 3147 3144 3143 3142 3142 3141 3140 3141 3141 3142 3141 3141 3140 3141 3140 3140 3141 3140 3140
3177 3176 3174 3172 3169 3166 3163 3160 3157 3153 3150 3147 3144 3141 3139 3138 3135 3134 3133 3134 3134 3134 3134 3134 3134 3134 3134 3134 3134 3134 3134 3135 3135
3174 3171 3169 3167 3164 3161 3157 3154 3150 3147 3143 3140 3137 3134 3132 3131 3129 3127 3126 3126 3126 3126 3125 3125 3125 3125 3126 3127 3128 3128 3128 3129 3129
3170 3167 3164 3161 3158 3154 3150 3147 3144 3140 3136 3133 3130 3127 3125 3123 3122 3121 3119 3118 3117 3118 3119 3118 3117 3117 3118 3119 3120 3120 3121 3122 3122
3165 3163 3159 3156 3152 3148 3145 3140 3137 3133 3130 3126 3123 3121 3118 3116 3115 3114 3113 3112 3111 3110 3111 3111 3110 3110 3110 3111 3112 3112 3113 3113 3114
3161 3158 3154 3150 3146 3142 3138 3134 3130 3127 3123 3120 3116 3113 3111 3110 3108 3107 3107 3106 3105 3105 3105 3104 3103 3103 3103 3104 3104 3105 3105 3105 3106
3156 3153 3149 3145 3141 3137 3133 3128 3124 3121 3117 3115 3112 3108 3106 3105 3104 3103 3102 3101 3100 3100 3099 3099 3099 3098 3098 3098 3098 3098 3098 3098 3098
3151 3147 3143 3140 3135 3131 3127 3123 3120 3116 3113 3110 3108 3106 3104 3103 3101 3100 3099 3099 3097 3096 3095 3095 3094 3093 3093 3093 3093 3093 3092 3093 3093
3146 3142 3137 3134 3130 3126 3122 3118 3115 3112 3109 3108 3106 3104 3102 3101 3099 3099 3097 3096 3095 3094 3093 3092 3091 3090 3089 3089 3088 3088 3087 3087 3086
3141 3137 3132 3129 3125 3121 3117 3114 3110 3108 3107 3106 3104 3103 3101 3099 3098 3097 3095 3094 3093 3092 3090 3088 3088 3087 3087 3085 3084 3083 3082 3080 3079
3136 3132 3128 3125 3121 3117 3114 3110 3108 3106 3105 3104 3103 3101 3100 3098 3097 3096 3094 3093 3091 3090 3088 3086 3085 3084 3083 3082 3080 3079 3077 3075 3073
3133 3129 3125 3121 3118 3114 3111 3108 3106 3104 3104 3103 3101 3100 3099 3096 3095 3094 3092 3091 3090 3089 3087 3086 3084 3083 3081 3080 3077 3075 3073 3070 3067
3129 3126 3122 3118 3115 3112 3109 3107 3104 3103 3101 3100 3100 3098 3097 3096 3094 3093 3091 3090 3088 3086 3086 3085 3083 3080 3079 3077 3075 3072 3069 3066 3063
3126 3122 3119 3116 3113 3110 3108 3105 3103 3101 3099 3098 3098 3097 3096 3094 3093 3092 3090 3088 3087 3084 3083 3081 3080 3078 3076 3074 3073 3069 3065 3063 3060
3123 3119 3116 3113 3110 3108 3106 3104 3102 3100 3098 3096 3095 3094 3093 3093 3092 3090 3088 3087 3085 3083 3080 3078 3077 3076 3075 3072 3071 3067 3064 3061 3056